Flag for China Weather past 2 weeks in Changchun, Jilin, China

Now
82 °F

Passing clouds.


Feels Like: 83 °F
Forecast: 59 / 84 °F
Wind: 3 mph from Northwest

Location: Changchun Airport

Current Time: Aug 30, 2014 at 3:17:07 PM

Latest Report: Aug 30, 2014 at 2:00 PM


Visibility: N/A

Pressure: 29.95 "Hg

Humidity: 51%

Dew point: 63 °F

Location of ChangchunLocation

Historic Weather in Changchun — Graph

°F

Changchun temperature yesterday

Maximum temperature yesterday: 86 °F (at 3:00 PM)
Minimum temperature yesterday: 63 °F (at 5:00 AM)
Average temperature yesterday: 74 °F

Past Weeks' High & Low Weather Summary

 TemperatureHumidityPressure
High86 °F (Aug 20, 1:00 PM)100% (Aug 19, 1:00 AM)30.07 "Hg (Aug 19, 1:00 AM)
Low57 °F (Aug 28, 4:00 AM)39% (Aug 16, 4:00 PM)29.68 "Hg (Aug 23, 3:00 PM)
Average72 °F71%29.87 "Hg
* Reported Aug 15 2:00 PM — Aug 30 2:00 PM, Changchun, Weather by CustomWeather, © 2014

Note: Actual official high and low records may vary slightly from our data, if they occured in-between our weather recording intervals... More about our weather records

Advertising

Changchun weather history for previous 24 hours

 ConditionsComfort  
Time TempWeatherWind HumidityBarometerVisibility
2:00 PM
Aug 30
82 °FPassing clouds.3 mph51%29.95 "HgN/A
1:00 PM84 °FPassing clouds.3 mph45%29.98 "HgN/A
12:00 PM82 °FPassing clouds.3 mph51%30.01 "HgN/A
11:00 AM81 °FSunny.3 mph51%30.01 "Hg10 mi
10:00 AM77 °FPassing clouds.3 mph57%30.04 "HgN/A
9:00 AM75 °FPassing clouds.6 mph57%30.07 "HgN/A
8:00 AM73 °FPassing clouds.3 mph57%30.04 "HgN/A
7:00 AM70 °FSunny.3 mph64%30.07 "Hg10 mi
6:00 AM64 °FClear.3 mph78%30.07 "Hg4 mi
5:00 AM64 °FClear.3 mph73%30.04 "Hg4 mi
3:00 AM66 °FClear.6 mph68%30.04 "Hg4 mi
2:00 AM70 °FClear.6 mph69%30.04 "Hg4 mi
1:00 AM70 °FClear.8 mph78%30.01 "Hg4 mi
12:00 AM70 °FClear.3 mph78%30.01 "Hg4 mi
11:00 PM
Aug 29
70 °FClear.6 mph78%30.04 "Hg4 mi
10:00 PM70 °FClear.6 mph78%30.04 "Hg4 mi
9:00 PM70 °FClear.6 mph73%30.04 "Hg5 mi
8:00 PM72 °FClear.6 mph69%30.04 "Hg5 mi
7:00 PM75 °FClear.3 mph61%30.01 "Hg10 mi
6:00 PM77 °FSunny.3 mph61%29.98 "Hg10 mi
5:00 PM82 °FPassing clouds.3 mph51%29.98 "HgN/A
4:00 PM84 °FPassing clouds.6 mph43%29.98 "HgN/A
3:00 PM86 °FPassing clouds.6 mph40%29.98 "HgN/A
Weather by CustomWeather, © 2014

See weather overviewHow to use our weather pages